Time,TemperatureF,DewpointF,PressureIn,WindDirection,WindDirectionDegrees,WindSpeedMPH,WindSpeedGustMPH,Humidity,HourlyPrecipIn,Conditions,Clouds,dailyrainin,SoftwareType,DateUTC
2013-04-23 00:01:00,47.4,40.2,30.31,NE,44,0.0,2.0,76,0.00,,---,0.00,VWS V14.01,2013-04-23 04:01:00,
2013-04-23 00:03:00,47.5,40.3,30.31,NE,40,1.0,3.0,76,0.00,,---,0.00,VWS V14.01,2013-04-23 04:03:00,
2013-04-23 00:05:00,47.6,40.4,30.31,NE,40,0.0,3.0,76,0.00,,---,0.00,VWS V14.01,2013-04-23 04:05:00,
2013-04-23 00:06:00,47.6,40.4,30.31,NE,40,0.0,3.0,76,0.00,,---,0.00,VWS V14.01,2013-04-23 04:06:00,
2013-04-23 00:11:00,47.3,40.5,30.31,NE,44,0.0,3.0,77,0.00,,---,0.00,VWS V14.01,2013-04-23 04:11:00,
2013-04-23 00:16:00,47.0,40.5,30.31,NE,44,0.0,0.0,78,0.00,,---,0.00,VWS V14.01,2013-04-23 04:16:00,
2013-04-23 00:22:00,46.7,40.5,30.31,NE,44,0.0,0.0,79,0.00,,---,0.00,VWS V14.01,2013-04-23 04:22:00,
2013-04-23 00:27:00,46.9,41.1,30.32,NE,44,0.0,0.0,80,0.00,,---,0.00,VWS V14.01,2013-04-23 04:27:00,
2013-04-23 00:32:00,47.1,41.6,30.31,NE,44,0.0,0.0,81,0.00,,---,0.00,VWS V14.01,2013-04-23 04:32:00,
2013-04-23 00:37:00,47.5,42.0,30.32,NE,44,0.0,1.0,81,0.00,,---,0.00,VWS V14.01,2013-04-23 04:37:00,
2013-04-23 00:42:00,48.0,42.1,30.32,NE,44,0.0,2.0,80,0.00,,---,0.00,VWS V14.01,2013-04-23 04:42:00,
2013-04-23 00:47:00,48.4,42.5,30.32,NE,44,0.0,0.0,80,0.00,,---,0.00,VWS V14.01,2013-04-23 04:47:00,
2013-04-23 00:52:00,48.6,42.4,30.32,South,186,1.0,1.0,79,0.00,,---,0.00,VWS V14.01,2013-04-23 04:52:00,
2013-04-23 00:57:00,49.2,42.3,30.32,NE,46,0.0,7.0,77,0.00,,---,0.00,VWS V14.01,2013-04-23 04:57:00,
2013-04-23 01:02:00,49.9,42.7,30.32,ENE,73,1.0,3.0,76,0.00,,---,0.00,VWS V14.01,2013-04-23 05:02:00,
2013-04-23 01:07:00,50.4,42.4,30.31,ENE,67,2.0,5.0,74,0.00,,---,0.00,VWS V14.01,2013-04-23 05:07:00,
2013-04-23 01:12:00,50.6,42.6,30.31,NE,56,1.0,5.0,74,0.00,,---,0.00,VWS V14.01,2013-04-23 05:12:00,
2013-04-23 01:17:00,50.8,42.8,30.31,East,79,0.0,1.0,74,0.00,,---,0.00,VWS V14.01,2013-04-23 05:17:00,
2013-04-23 01:22:00,50.9,42.6,30.31,East,80,0.0,2.0,73,0.00,,---,0.00,VWS V14.01,2013-04-23 05:22:00,
2013-04-23 01:27:00,50.9,42.9,30.31,East,80,0.0,2.0,74,0.00,,---,0.00,VWS V14.01,2013-04-23 05:27:00,
2013-04-23 01:32:00,51.0,43.0,30.31,East,80,0.0,1.0,74,0.00,,---,0.00,VWS V14.01,2013-04-23 05:32:00,
2013-04-23 01:37:00,51.2,43.2,30.31,ENE,70,0.0,1.0,74,0.00,,---,0.00,VWS V14.01,2013-04-23 05:37:00,
2013-04-23 01:43:00,51.3,43.0,30.31,ENE,65,0.0,1.0,73,0.00,,---,0.00,VWS V14.01,2013-04-23 05:43:00,
2013-04-23 01:48:00,51.4,43.0,30.31,East,84,0.0,0.0,73,0.00,,---,0.00,VWS V14.01,2013-04-23 05:48:00,
2013-04-23 01:53:00,51.4,43.4,30.31,NE,44,0.0,2.0,74,0.00,,---,0.00,VWS V14.01,2013-04-23 05:53:00,
2013-04-23 01:58:00,51.4,43.4,30.31,NE,44,0.0,2.0,74,0.00,,---,0.00,VWS V14.01,2013-04-23 05:58:00,
2013-04-23 02:03:00,51.4,43.4,30.31,NE,44,0.0,2.0,74,0.00,,---,0.00,VWS V14.01,2013-04-23 06:03:00,
2013-04-23 02:08:00,51.4,43.4,30.31,NE,44,0.0,2.0,74,0.00,,---,0.00,VWS V14.01,2013-04-23 06:08:00,
2013-04-23 02:13:00,51.4,43.8,30.31,NE,44,0.0,2.0,75,0.00,,---,0.00,VWS V14.01,2013-04-23 06:13:00,
2013-04-23 02:18:00,51.4,43.8,30.31,NE,42,0.0,1.0,75,0.00,,---,0.00,VWS V14.01,2013-04-23 06:18:00,
2013-04-23 02:23:00,51.4,43.8,30.30,ENE,72,0.0,3.0,75,0.00,,---,0.00,VWS V14.01,2013-04-23 06:23:00,
2013-04-23 02:28:00,51.4,43.8,30.30,NNW,336,0.0,3.0,75,0.00,,---,0.00,VWS V14.01,2013-04-23 06:28:00,
2013-04-23 02:33:00,51.4,43.8,30.30,NNE,22,0.0,3.0,75,0.00,,---,0.00,VWS V14.01,2013-04-23 06:33:00,
2013-04-23 02:38:00,51.4,43.8,30.30,NNE,26,1.0,3.0,75,0.00,,---,0.00,VWS V14.01,2013-04-23 06:38:00,
2013-04-23 02:43:00,51.4,43.4,30.29,North,10,0.0,3.0,74,0.00,,---,0.00,VWS V14.01,2013-04-23 06:43:00,
2013-04-23 02:48:00,51.4,43.4,30.29,ENE,60,0.0,1.0,74,0.00,,---,0.00,VWS V14.01,2013-04-23 06:48:00,
2013-04-23 02:53:00,51.3,43.3,30.29,ENE,60,1.0,1.0,74,0.00,,---,0.00,VWS V14.01,2013-04-23 06:53:00,
2013-04-23 02:59:00,51.3,43.7,30.29,NE,52,3.0,3.0,75,0.00,,---,0.00,VWS V14.01,2013-04-23 06:59:00,
2013-04-23 03:04:00,51.2,43.6,30.29,NE,50,0.0,0.0,75,0.00,,---,0.00,VWS V14.01,2013-04-23 07:04:00,
2013-04-23 03:09:00,51.2,43.6,30.29,NNE,29,0.0,2.0,75,0.00,,---,0.00,VWS V14.01,2013-04-23 07:09:00,
2013-04-23 03:14:00,51.2,43.6,30.29,NW,325,3.0,3.0,75,0.00,,---,0.00,VWS V14.01,2013-04-23 07:14:00,
2013-04-23 03:19:00,51.2,43.6,30.28,NE,39,0.0,3.0,75,0.00,,---,0.00,VWS V14.01,2013-04-23 07:19:00,
2013-04-23 03:24:00,51.2,43.6,30.28,ENE,61,0.0,3.0,75,0.00,,---,0.00,VWS V14.01,2013-04-23 07:24:00,
2013-04-23 03:29:00,51.2,43.6,30.28,NE,44,0.0,3.0,75,0.00,,---,0.00,VWS V14.01,2013-04-23 07:29:00,
2013-04-23 03:34:00,51.1,43.5,30.28,NNE,30,2.0,3.0,75,0.00,,---,0.00,VWS V14.01,2013-04-23 07:34:00,
2013-04-23 03:39:00,51.1,43.8,30.28,NNE,17,0.0,3.0,76,0.00,,---,0.00,VWS V14.01,2013-04-23 07:39:00,
2013-04-23 03:44:00,51.1,43.5,30.28,ENE,69,0.0,4.0,75,0.00,,---,0.00,VWS V14.01,2013-04-23 07:44:00,
2013-04-23 03:49:00,51.1,43.5,30.28,NE,42,0.0,1.0,75,0.00,,---,0.00,VWS V14.01,2013-04-23 07:49:00,
2013-04-23 03:54:00,51.1,43.5,30.28,NE,42,0.0,1.0,75,0.00,,---,0.00,VWS V14.01,2013-04-23 07:54:00,
2013-04-23 03:59:00,51.1,43.5,30.28,ENE,76,0.0,2.0,75,0.00,,---,0.00,VWS V14.01,2013-04-23 07:59:00,
2013-04-23 04:04:00,51.1,43.5,30.28,NE,53,0.0,2.0,75,0.00,,---,0.00,VWS V14.01,2013-04-23 08:04:00,
2013-04-23 04:09:00,51.0,43.7,30.28,East,93,0.0,3.0,76,0.00,,---,0.00,VWS V14.01,2013-04-23 08:09:00,
2013-04-23 04:14:00,51.0,43.7,30.28,East,80,0.0,3.0,76,0.00,,---,0.00,VWS V14.01,2013-04-23 08:14:00,
2013-04-23 04:20:00,50.9,43.6,30.28,NE,37,0.0,3.0,76,0.00,,---,0.00,VWS V14.01,2013-04-23 08:20:00,
2013-04-23 04:25:00,50.8,43.5,30.28,ENE,64,0.0,3.0,76,0.00,,---,0.00,VWS V14.01,2013-04-23 08:25:00,
2013-04-23 04:30:00,50.8,43.9,30.29,North,9,0.0,5.0,77,0.00,,---,0.00,VWS V14.01,2013-04-23 08:30:00,
2013-04-23 04:35:00,50.8,43.9,30.29,NE,36,2.0,5.0,77,0.00,,---,0.00,VWS V14.01,2013-04-23 08:35:00,
2013-04-23 04:40:00,50.9,44.0,30.29,SE,130,1.0,8.0,77,0.00,,---,0.00,VWS V14.01,2013-04-23 08:40:00,
2013-04-23 04:45:00,50.9,43.6,30.29,ESE,110,1.0,8.0,76,0.00,,---,0.00,VWS V14.01,2013-04-23 08:45:00,
2013-04-23 04:50:00,50.9,44.0,30.28,ENE,63,0.0,3.0,77,0.00,,---,0.00,VWS V14.01,2013-04-23 08:50:00,
2013-04-23 04:55:00,50.9,44.0,30.28,ESE,107,1.0,3.0,77,0.00,,---,0.00,VWS V14.01,2013-04-23 08:55:00,
2013-04-23 05:00:00,50.8,44.2,30.28,ENE,77,0.0,3.0,78,0.00,,---,0.00,VWS V14.01,2013-04-23 09:00:00,
2013-04-23 05:05:00,50.7,44.1,30.28,ENE,64,1.0,4.0,78,0.00,,---,0.00,VWS V14.01,2013-04-23 09:05:00,
2013-04-23 05:10:00,50.7,44.1,30.28,ENE,57,0.0,4.0,78,0.00,,---,0.00,VWS V14.01,2013-04-23 09:10:00,
2013-04-23 05:15:00,50.6,44.0,30.27,NNW,344,0.0,5.0,78,0.00,,---,0.00,VWS V14.01,2013-04-23 09:15:00,
2013-04-23 05:20:00,50.6,44.0,30.27,North,11,2.0,3.0,78,0.00,,---,0.00,VWS V14.01,2013-04-23 09:20:00,
2013-04-23 05:25:00,50.5,44.2,30.27,SSE,151,0.0,3.0,79,0.00,,---,0.00,VWS V14.01,2013-04-23 09:25:00,
2013-04-23 05:31:00,50.5,44.2,30.27,SE,126,2.0,3.0,79,0.00,,---,0.00,VWS V14.01,2013-04-23 09:31:00,
2013-04-23 05:36:00,50.4,44.1,30.27,ESE,111,0.0,4.0,79,0.00,,---,0.00,VWS V14.01,2013-04-23 09:36:00,
2013-04-23 05:41:00,50.3,44.0,30.27,East,98,2.0,4.0,79,0.00,,---,0.00,VWS V14.01,2013-04-23 09:41:00,
2013-04-23 05:46:00,50.2,44.3,30.27,ENE,59,2.0,2.0,80,0.00,,---,0.00,VWS V14.01,2013-04-23 09:46:00,
2013-04-23 05:51:00,50.1,44.2,30.27,ENE,62,1.0,3.0,80,0.00,,---,0.00,VWS V14.01,2013-04-23 09:51:00,
2013-04-23 05:56:00,50.2,44.3,30.27,NNE,26,0.0,6.0,80,0.00,,---,0.00,VWS V14.01,2013-04-23 09:56:00,
2013-04-23 06:01:00,50.1,44.2,30.27,East,96,3.0,5.0,80,0.00,,---,0.00,VWS V14.01,2013-04-23 10:01:00,
2013-04-23 06:06:00,50.2,44.3,30.27,NNE,30,1.0,7.0,80,0.00,,---,0.00,VWS V14.01,2013-04-23 10:06:00,
2013-04-23 06:11:00,50.2,44.3,30.28,East,86,1.0,7.0,80,0.00,,---,0.00,VWS V14.01,2013-04-23 10:11:00,
2013-04-23 06:17:00,50.2,44.3,30.28,NNE,14,0.0,1.0,80,0.00,,---,0.00,VWS V14.01,2013-04-23 10:17:00,
2013-04-23 06:22:00,50.1,44.2,30.28,NNE,33,1.0,3.0,80,0.00,,---,0.00,VWS V14.01,2013-04-23 10:22:00,
2013-04-23 06:27:00,50.1,44.5,30.28,ENE,77,2.0,3.0,81,0.00,,---,0.00,VWS V14.01,2013-04-23 10:27:00,
2013-04-23 06:32:00,50.0,44.4,30.28,ENE,74,1.0,1.0,81,0.00,,---,0.00,VWS V14.01,2013-04-23 10:32:00,
2013-04-23 06:37:00,49.9,44.3,30.28,NE,48,0.0,4.0,81,0.00,,---,0.00,VWS V14.01,2013-04-23 10:37:00,
2013-04-23 06:42:00,49.9,44.3,30.28,ESE,111,4.0,6.0,81,0.00,,---,0.00,VWS V14.01,2013-04-23 10:42:00,
2013-04-23 06:47:00,49.9,44.3,30.29,ESE,117,1.0,4.0,81,0.00,,---,0.00,VWS V14.01,2013-04-23 10:47:00,
2013-04-23 06:52:00,49.9,44.3,30.28,NE,56,1.0,9.0,81,0.00,,---,0.00,VWS V14.01,2013-04-23 10:52:00,
2013-04-23 06:57:00,49.9,44.3,30.29,ESE,121,1.0,9.0,81,0.00,,---,0.00,VWS V14.01,2013-04-23 10:57:00,
2013-04-23 07:02:00,49.9,44.3,30.29,NNE,22,1.0,6.0,81,0.00,,---,0.00,VWS V14.01,2013-04-23 11:02:00,
2013-04-23 07:07:00,49.9,44.6,30.29,East,88,1.0,6.0,82,0.00,,---,0.00,VWS V14.01,2013-04-23 11:07:00,
2013-04-23 07:12:00,49.9,44.3,30.29,ESE,103,1.0,8.0,81,0.00,,---,0.00,VWS V14.01,2013-04-23 11:12:00,
2013-04-23 07:17:00,50.0,44.7,30.29,ENE,77,0.0,6.0,82,0.00,,---,0.00,VWS V14.01,2013-04-23 11:17:00,
2013-04-23 07:22:00,50.0,44.7,30.29,East,98,1.0,6.0,82,0.00,,---,0.00,VWS V14.01,2013-04-23 11:22:00,
2013-04-23 07:27:00,50.0,44.7,30.29,ESE,111,0.0,6.0,82,0.00,,---,0.00,VWS V14.01,2013-04-23 11:27:00,
2013-04-23 07:33:00,50.0,44.7,30.29,ENE,61,2.0,4.0,82,0.00,,---,0.00,VWS V14.01,2013-04-23 11:33:00,
2013-04-23 07:38:00,50.0,44.7,30.30,SE,126,2.0,9.0,82,0.00,,---,0.00,VWS V14.01,2013-04-23 11:38:00,
2013-04-23 07:43:00,50.1,44.8,30.30,ENE,57,2.0,9.0,82,0.00,,---,0.00,VWS V14.01,2013-04-23 11:43:00,
2013-04-23 07:48:00,50.0,44.7,30.30,North,5,3.0,7.0,82,0.00,,---,0.00,VWS V14.01,2013-04-23 11:48:00,
2013-04-23 07:53:00,50.0,44.7,30.30,East,94,1.0,9.0,82,0.00,,---,0.00,VWS V14.01,2013-04-23 11:53:00,
2013-04-23 07:58:00,50.0,44.7,30.30,SE,142,8.0,9.0,82,0.00,,---,0.00,VWS V14.01,2013-04-23 11:58:00,
2013-04-23 08:03:00,50.0,44.7,30.30,NNW,342,1.0,6.0,82,0.00,,---,0.00,VWS V14.01,2013-04-23 12:03:00,
2013-04-23 08:08:00,50.1,44.8,30.31,ESE,118,2.0,6.0,82,0.00,,---,0.00,VWS V14.01,2013-04-23 12:08:00,
2013-04-23 08:13:00,50.3,45.3,30.30,East,92,3.0,6.0,83,0.00,,---,0.00,VWS V14.01,2013-04-23 12:13:00,
2013-04-23 08:18:00,50.3,45.0,30.30,NNE,12,5.0,7.0,82,0.00,,---,0.00,VWS V14.01,2013-04-23 12:18:00,
2013-04-23 08:23:00,50.6,45.3,30.30,NE,37,1.0,7.0,82,0.00,,---,0.00,VWS V14.01,2013-04-23 12:23:00,
2013-04-23 08:28:00,50.8,45.5,30.30,NE,49,5.0,7.0,82,0.00,,---,0.00,VWS V14.01,2013-04-23 12:28:00,
2013-04-23 08:33:00,51.0,45.7,30.30,East,89,2.0,7.0,82,0.00,,---,0.00,VWS V14.01,2013-04-23 12:33:00,
2013-04-23 08:38:00,51.0,45.4,30.29,NNE,23,0.0,7.0,81,0.00,,---,0.00,VWS V14.01,2013-04-23 12:38:00,
2013-04-23 08:44:00,51.0,45.1,30.29,NNW,327,0.0,7.0,80,0.00,,---,0.00,VWS V14.01,2013-04-23 12:44:00,
2013-04-23 08:49:00,50.8,44.9,30.29,NNE,24,5.0,8.0,80,0.00,,---,0.00,VWS V14.01,2013-04-23 12:49:00,
2013-04-23 08:54:00,51.0,45.1,30.30,NNE,30,5.0,8.0,80,0.00,,---,0.00,VWS V14.01,2013-04-23 12:54:00,
2013-04-23 08:59:00,51.3,45.0,30.30,NE,38,3.0,8.0,79,0.00,,---,0.00,VWS V14.01,2013-04-23 12:59:00,
2013-04-23 09:04:00,51.1,44.8,30.30,NNE,26,3.0,6.0,79,0.00,,---,0.00,VWS V14.01,2013-04-23 13:04:00,
2013-04-23 09:09:00,51.2,44.9,30.30,NNE,22,2.0,7.0,79,0.00,,---,0.00,VWS V14.01,2013-04-23 13:09:00,
2013-04-23 09:14:00,51.4,45.5,30.30,NNW,328,0.0,10.0,80,0.00,,---,0.00,VWS V14.01,2013-04-23 13:14:00,
2013-04-23 09:19:00,51.8,45.8,30.30,North,5,3.0,8.0,80,0.00,,---,0.00,VWS V14.01,2013-04-23 13:19:00,
2013-04-23 09:24:00,52.1,46.1,30.31,NE,42,3.0,9.0,80,0.00,,---,0.00,VWS V14.01,2013-04-23 13:24:00,
2013-04-23 09:29:00,52.0,46.0,30.31,NNE,26,2.0,9.0,80,0.00,,---,0.00,VWS V14.01,2013-04-23 13:29:00,
2013-04-23 09:34:00,51.9,45.9,30.31,NNE,27,3.0,8.0,80,0.00,,---,0.00,VWS V14.01,2013-04-23 13:34:00,
2013-04-23 09:39:00,52.1,45.8,30.31,NNE,28,3.0,8.0,79,0.00,,---,0.00,VWS V14.01,2013-04-23 13:39:00,
2013-04-23 09:44:00,52.2,46.2,30.31,NNE,19,1.0,8.0,80,0.00,,---,0.00,VWS V14.01,2013-04-23 13:44:00,
2013-04-23 09:49:00,52.4,46.1,30.32,ESE,117,2.0,8.0,79,0.00,,---,0.00,VWS V14.01,2013-04-23 13:49:00,
2013-04-23 09:55:00,52.4,46.1,30.32,NE,38,0.0,8.0,79,0.00,,---,0.00,VWS V14.01,2013-04-23 13:55:00,
2013-04-23 10:00:00,52.7,46.4,30.31,ESE,111,3.0,8.0,79,0.00,,---,0.00,VWS V14.01,2013-04-23 14:00:00,
2013-04-23 10:05:00,52.9,46.9,30.32,NNW,344,3.0,4.0,80,0.00,,---,0.00,VWS V14.01,2013-04-23 14:05:00,
2013-04-23 10:10:00,53.6,47.3,30.32,NNW,348,2.0,6.0,79,0.00,,---,0.00,VWS V14.01,2013-04-23 14:10:00,
2013-04-23 10:15:00,53.9,46.9,30.31,NNE,21,3.0,6.0,77,0.00,,---,0.00,VWS V14.01,2013-04-23 14:15:00,
2013-04-23 10:20:00,53.6,46.6,30.31,ESE,109,3.0,8.0,77,0.00,,---,0.00,VWS V14.01,2013-04-23 14:20:00,
2013-04-23 10:25:00,53.7,47.3,30.32,East,79,0.0,8.0,79,0.00,,---,0.00,VWS V14.01,2013-04-23 14:25:00,
2013-04-23 10:30:00,53.4,47.1,30.32,NNW,336,7.0,8.0,79,0.00,,---,0.00,VWS V14.01,2013-04-23 14:30:00,
2013-04-23 10:35:00,53.9,47.2,30.33,NNW,341,0.0,3.0,78,0.00,,---,0.00,VWS V14.01,2013-04-23 14:35:00,
2013-04-23 10:40:00,54.1,47.4,30.32,North,360,0.0,3.0,78,0.00,,---,0.00,VWS V14.01,2013-04-23 14:40:00,
2013-04-23 10:45:00,53.6,46.6,30.32,ENE,61,1.0,5.0,77,0.00,,---,0.00,VWS V14.01,2013-04-23 14:45:00,
2013-04-23 10:50:00,53.8,47.1,30.32,SE,130,1.0,3.0,78,0.00,,---,0.00,VWS V14.01,2013-04-23 14:50:00,
2013-04-23 10:55:00,53.4,47.1,30.32,ESE,119,3.0,5.0,79,0.00,,---,0.00,VWS V14.01,2013-04-23 14:55:00,
2013-04-23 11:00:00,53.8,47.1,30.32,ESE,122,4.0,6.0,78,0.00,,---,0.00,VWS V14.01,2013-04-23 15:00:00,
2013-04-23 11:05:00,54.9,47.8,30.33,ESE,119,3.0,7.0,77,0.00,,---,0.00,VWS V14.01,2013-04-23 15:05:00,
2013-04-23 11:11:00,54.8,48.4,30.33,NNE,13,4.0,7.0,79,0.00,,---,0.00,VWS V14.01,2013-04-23 15:11:00,
2013-04-23 11:16:00,56.4,50.0,30.32,ENE,60,2.0,7.0,79,0.00,,---,0.00,VWS V14.01,2013-04-23 15:16:00,
2013-04-23 11:21:00,56.7,47.8,30.32,ESE,118,5.0,7.0,72,0.00,,---,0.00,VWS V14.01,2013-04-23 15:21:00,
2013-04-23 11:26:00,55.6,47.5,30.31,SSE,149,0.0,7.0,74,0.00,,---,0.00,VWS V14.01,2013-04-23 15:26:00,
2013-04-23 11:31:00,56.4,48.2,30.31,North,5,4.0,4.0,74,0.00,,---,0.00,VWS V14.01,2013-04-23 15:31:00,
2013-04-23 11:36:00,57.3,49.5,30.31,ENE,61,2.0,5.0,75,0.00,,---,0.00,VWS V14.01,2013-04-23 15:36:00,
2013-04-23 11:41:00,57.7,49.5,30.30,NNW,336,1.0,5.0,74,0.00,,---,0.00,VWS V14.01,2013-04-23 15:41:00,
2013-04-23 11:47:00,58.2,49.6,30.30,ESE,104,4.0,7.0,73,0.00,,---,0.00,VWS V14.01,2013-04-23 15:47:00,
2013-04-23 11:52:00,57.2,48.6,30.31,NNE,28,1.0,8.0,73,0.00,,---,0.00,VWS V14.01,2013-04-23 15:52:00,
2013-04-23 11:57:00,58.0,50.5,30.32,North,355,0.0,8.0,76,0.00,,---,0.00,VWS V14.01,2013-04-23 15:57:00,
2013-04-23 12:02:00,57.8,48.8,30.32,NNE,23,0.0,5.0,72,0.00,,---,0.00,VWS V14.01,2013-04-23 16:02:00,
2013-04-23 12:07:00,57.8,49.6,30.32,North,360,1.0,5.0,74,0.00,,---,0.00,VWS V14.01,2013-04-23 16:07:00,
2013-04-23 12:12:00,58.1,49.9,30.32,NW,307,3.0,5.0,74,0.00,,---,0.00,VWS V14.01,2013-04-23 16:12:00,
2013-04-23 12:17:00,58.2,50.0,30.32,North,5,1.0,4.0,74,0.00,,---,0.00,VWS V14.01,2013-04-23 16:17:00,
2013-04-23 12:22:00,57.7,49.8,30.31,NNW,329,1.0,4.0,75,0.00,,---,0.00,VWS V14.01,2013-04-23 16:22:00,
2013-04-23 12:27:00,58.1,50.2,30.32,North,360,2.0,4.0,75,0.00,,---,0.00,VWS V14.01,2013-04-23 16:27:00,
2013-04-23 12:32:00,58.2,51.0,30.31,NE,45,0.0,2.0,77,0.00,,---,0.00,VWS V14.01,2013-04-23 16:32:00,
2013-04-23 12:37:00,57.2,49.4,30.31,SE,129,2.0,10.0,75,0.00,,---,0.00,VWS V14.01,2013-04-23 16:37:00,
2013-04-23 12:42:00,58.5,50.6,30.30,NNW,342,4.0,10.0,75,0.00,,---,0.00,VWS V14.01,2013-04-23 16:42:00,
2013-04-23 12:47:00,59.5,51.6,30.29,ENE,66,4.0,7.0,75,0.00,,---,0.00,VWS V14.01,2013-04-23 16:47:00,
2013-04-23 12:53:00,60.3,50.5,30.29,NE,40,2.0,7.0,70,0.00,,---,0.00,VWS V14.01,2013-04-23 16:53:00,
2013-04-23 12:58:00,59.5,50.8,30.28,East,99,3.0,7.0,73,0.00,,---,0.00,VWS V14.01,2013-04-23 16:58:00,
2013-04-23 13:03:00,58.6,50.3,30.28,SW,234,2.0,5.0,74,0.00,,---,0.00,VWS V14.01,2013-04-23 17:03:00,
2013-04-23 13:08:00,58.6,49.6,30.28,ESE,121,0.0,5.0,72,0.00,,---,0.00,VWS V14.01,2013-04-23 17:08:00,
2013-04-23 13:13:00,59.3,49.5,30.27,SE,136,1.0,5.0,70,0.00,,---,0.00,VWS V14.01,2013-04-23 17:13:00,
2013-04-23 13:18:00,60.2,51.2,30.27,NNW,327,4.0,8.0,72,0.00,,---,0.00,VWS V14.01,2013-04-23 17:18:00,
2013-04-23 13:23:00,61.1,51.6,30.27,East,92,1.0,8.0,71,0.00,,---,0.00,VWS V14.01,2013-04-23 17:23:00,
2013-04-23 13:28:00,60.9,51.5,30.27,ENE,67,0.0,8.0,71,0.00,,---,0.00,VWS V14.01,2013-04-23 17:28:00,
2013-04-23 13:33:00,60.7,52.4,30.26,SSE,153,2.0,5.0,74,0.00,,---,0.00,VWS V14.01,2013-04-23 17:33:00,
2013-04-23 13:38:00,61.3,51.5,30.26,SE,139,1.0,5.0,70,0.00,,---,0.00,VWS V14.01,2013-04-23 17:38:00,
2013-04-23 13:43:00,61.3,51.8,30.26,SE,142,4.0,6.0,71,0.00,,---,0.00,VWS V14.01,2013-04-23 17:43:00,
2013-04-23 13:48:00,60.9,51.8,30.26,SSE,152,2.0,9.0,72,0.00,,---,0.00,VWS V14.01,2013-04-23 17:48:00,
2013-04-23 13:53:00,61.7,52.2,30.26,SE,132,5.0,9.0,71,0.00,,---,0.00,VWS V14.01,2013-04-23 17:53:00,
2013-04-23 13:59:00,60.6,51.2,30.26,East,92,2.0,9.0,71,0.00,,---,0.00,VWS V14.01,2013-04-23 17:59:00,
2013-04-23 14:04:00,61.3,51.8,30.26,ESE,116,4.0,8.0,71,0.00,,---,0.00,VWS V14.01,2013-04-23 18:04:00,
2013-04-23 14:09:00,62.2,53.8,30.26,NW,318,0.0,8.0,74,0.00,,---,0.00,VWS V14.01,2013-04-23 18:09:00,
2013-04-23 14:14:00,62.5,51.8,30.26,SE,133,3.0,8.0,68,0.00,,---,0.00,VWS V14.01,2013-04-23 18:14:00,
2013-04-23 14:19:00,62.0,51.3,30.25,ENE,67,1.0,8.0,68,0.00,,---,0.00,VWS V14.01,2013-04-23 18:19:00,
2013-04-23 14:24:00,60.9,52.2,30.25,SW,234,1.0,8.0,73,0.00,,---,0.00,VWS V14.01,2013-04-23 18:24:00,
2013-04-23 14:29:00,62.7,53.9,30.25,East,97,0.0,8.0,73,0.00,,---,0.00,VWS V14.01,2013-04-23 18:29:00,
2013-04-23 14:34:00,62.5,53.0,30.25,SE,136,7.0,7.0,71,0.00,,---,0.00,VWS V14.01,2013-04-23 18:34:00,
2013-04-23 14:39:00,62.3,52.0,30.25,South,173,1.0,7.0,69,0.00,,---,0.00,VWS V14.01,2013-04-23 18:39:00,
2013-04-23 14:44:00,62.6,52.7,30.24,East,100,0.0,8.0,70,0.00,,---,0.00,VWS V14.01,2013-04-23 18:44:00,
2013-04-23 14:49:00,62.4,52.9,30.24,ESE,123,2.0,5.0,71,0.00,,---,0.00,VWS V14.01,2013-04-23 18:49:00,
2013-04-23 14:54:00,62.9,52.6,30.24,East,87,3.0,7.0,69,0.00,,---,0.00,VWS V14.01,2013-04-23 18:54:00,
2013-04-23 14:59:00,62.9,53.4,30.24,SSE,152,4.0,7.0,71,0.00,,---,0.00,VWS V14.01,2013-04-23 18:59:00,
2013-04-23 15:04:00,62.7,52.4,30.24,South,175,1.0,6.0,69,0.00,,---,0.00,VWS V14.01,2013-04-23 19:04:00,
2013-04-23 15:09:00,64.1,54.5,30.24,SE,126,2.0,6.0,71,0.00,,---,0.00,VWS V14.01,2013-04-23 19:09:00,
2013-04-23 15:15:00,63.8,53.8,30.23,ESE,112,3.0,7.0,70,0.00,,---,0.00,VWS V14.01,2013-04-23 19:15:00,
2013-04-23 15:20:00,63.0,51.9,30.23,SW,235,1.0,7.0,67,0.00,,---,0.00,VWS V14.01,2013-04-23 19:20:00,
2013-04-23 15:25:00,63.2,52.9,30.23,South,171,5.0,7.0,69,0.00,,---,0.00,VWS V14.01,2013-04-23 19:25:00,
2013-04-23 15:30:00,63.8,54.2,30.22,South,173,4.0,7.0,71,0.00,,---,0.00,VWS V14.01,2013-04-23 19:30:00,
2013-04-23 15:35:00,64.1,53.7,30.22,South,188,4.0,4.0,69,0.00,,---,0.00,VWS V14.01,2013-04-23 19:35:00,
2013-04-23 15:40:00,64.4,54.4,30.22,SSE,167,2.0,7.0,70,0.00,,---,0.00,VWS V14.01,2013-04-23 19:40:00,
2013-04-23 15:45:00,64.1,53.3,30.21,NE,52,0.0,7.0,68,0.00,,---,0.00,VWS V14.01,2013-04-23 19:45:00,
2013-04-23 15:50:00,65.6,56.3,30.22,South,170,7.0,7.0,72,0.00,,---,0.00,VWS V14.01,2013-04-23 19:50:00,
2013-04-23 15:55:00,64.4,52.4,30.22,South,183,1.0,7.0,65,0.00,,---,0.00,VWS V14.01,2013-04-23 19:55:00,
2013-04-23 16:00:00,63.6,53.7,30.22,SSW,209,1.0,7.0,70,0.00,,---,0.00,VWS V14.01,2013-04-23 20:00:00,
2013-04-23 16:05:00,65.4,55.8,30.22,SW,219,0.0,2.0,71,0.00,,---,0.00,VWS V14.01,2013-04-23 20:05:00,
2013-04-23 16:10:00,65.6,54.8,30.22,WNW,296,1.0,4.0,68,0.00,,---,0.00,VWS V14.01,2013-04-23 20:10:00,
2013-04-23 16:15:00,66.2,56.1,30.22,NE,54,1.0,4.0,70,0.00,,---,0.00,VWS V14.01,2013-04-23 20:15:00,
2013-04-23 16:20:00,65.3,55.3,30.22,SSE,157,0.0,3.0,70,0.00,,---,0.00,VWS V14.01,2013-04-23 20:20:00,
2013-04-23 16:26:00,65.3,54.1,30.21,SSE,157,0.0,3.0,67,0.00,,---,0.00,VWS V14.01,2013-04-23 20:26:00,
2013-04-23 16:31:00,66.1,54.0,30.21,ESE,123,4.0,4.0,65,0.00,,---,0.00,VWS V14.01,2013-04-23 20:31:00,
2013-04-23 16:36:00,66.1,54.0,30.21,NNE,22,0.0,5.0,65,0.00,,---,0.00,VWS V14.01,2013-04-23 20:36:00,
2013-04-23 16:41:00,66.5,54.4,30.20,South,184,3.0,5.0,65,0.00,,---,0.00,VWS V14.01,2013-04-23 20:41:00,
2013-04-23 16:46:00,66.1,53.6,30.20,SSE,163,3.0,3.0,64,0.00,,---,0.00,VWS V14.01,2013-04-23 20:46:00,
2013-04-23 16:51:00,65.6,53.1,30.19,SSE,156,1.0,3.0,64,0.00,,---,0.00,VWS V14.01,2013-04-23 20:51:00,
2013-04-23 16:56:00,65.6,53.5,30.19,ESE,109,0.0,5.0,65,0.00,,---,0.00,VWS V14.01,2013-04-23 20:56:00,
2013-04-23 17:01:00,65.8,53.7,30.19,ESE,121,2.0,2.0,65,0.00,,---,0.00,VWS V14.01,2013-04-23 21:01:00,
2013-04-23 17:06:00,65.9,54.2,30.19,SE,128,1.0,4.0,66,0.00,,---,0.00,VWS V14.01,2013-04-23 21:06:00,
2013-04-23 17:11:00,66.3,54.2,30.19,SSE,165,3.0,5.0,65,0.00,,---,0.00,VWS V14.01,2013-04-23 21:11:00,
2013-04-23 17:16:00,66.0,53.1,30.18,SSW,192,2.0,2.0,63,0.00,,---,0.00,VWS V14.01,2013-04-23 21:16:00,
2013-04-23 17:21:00,65.9,53.4,30.18,South,183,4.0,7.0,64,0.00,,---,0.00,VWS V14.01,2013-04-23 21:21:00,
2013-04-23 17:26:00,65.8,53.7,30.18,SSE,151,2.0,7.0,65,0.00,,---,0.00,VWS V14.01,2013-04-23 21:26:00,
2013-04-23 17:31:00,65.9,54.2,30.18,SSE,148,0.0,1.0,66,0.00,,---,0.00,VWS V14.01,2013-04-23 21:31:00,
2013-04-23 17:37:00,65.8,54.1,30.18,SE,128,1.0,5.0,66,0.00,,---,0.00,VWS V14.01,2013-04-23 21:37:00,
2013-04-23 17:42:00,66.1,53.6,30.18,SE,130,3.0,5.0,64,0.00,,---,0.00,VWS V14.01,2013-04-23 21:42:00,
2013-04-23 17:47:00,66.0,53.5,30.18,ESE,123,0.0,3.0,64,0.00,,---,0.00,VWS V14.01,2013-04-23 21:47:00,
2013-04-23 17:52:00,65.9,53.8,30.18,ESE,102,2.0,3.0,65,0.00,,---,0.00,VWS V14.01,2013-04-23 21:52:00,
2013-04-23 17:57:00,65.9,54.2,30.18,SSE,155,5.0,6.0,66,0.00,,---,0.00,VWS V14.01,2013-04-23 21:57:00,
2013-04-23 18:02:00,65.8,53.7,30.18,SSE,149,3.0,3.0,65,0.00,,---,0.00,VWS V14.01,2013-04-23 22:02:00,
2013-04-23 18:07:00,65.6,54.0,30.18,SE,139,2.0,6.0,66,0.00,,---,0.00,VWS V14.01,2013-04-23 22:07:00,
2013-04-23 18:12:00,65.5,53.8,30.18,South,175,7.0,7.0,66,0.00,,---,0.00,VWS V14.01,2013-04-23 22:12:00,
2013-04-23 18:17:00,65.5,54.3,30.17,SSE,153,2.0,4.0,67,0.00,,---,0.00,VWS V14.01,2013-04-23 22:17:00,
2013-04-23 18:22:00,65.5,53.8,30.17,ESE,110,0.0,6.0,66,0.00,,---,0.00,VWS V14.01,2013-04-23 22:22:00,
2013-04-23 18:27:00,65.7,54.0,30.18,SSE,151,4.0,7.0,66,0.00,,---,0.00,VWS V14.01,2013-04-23 22:27:00,
2013-04-23 18:32:00,65.5,53.8,30.18,SSE,167,0.0,2.0,66,0.00,,---,0.00,VWS V14.01,2013-04-23 22:32:00,
2013-04-23 18:37:00,65.5,53.8,30.18,SSE,163,1.0,5.0,66,0.00,,---,0.00,VWS V14.01,2013-04-23 22:37:00,
2013-04-23 18:42:00,65.2,53.6,30.17,South,177,4.0,5.0,66,0.00,,---,0.00,VWS V14.01,2013-04-23 22:42:00,
2013-04-23 18:47:00,65.4,54.2,30.18,SE,130,0.0,3.0,67,0.00,,---,0.00,VWS V14.01,2013-04-23 22:47:00,
2013-04-23 18:53:00,65.3,53.7,30.18,SE,140,2.0,5.0,66,0.00,,---,0.00,VWS V14.01,2013-04-23 22:53:00,
2013-04-23 18:58:00,65.2,54.0,30.18,SSE,158,3.0,7.0,67,0.00,,---,0.00,VWS V14.01,2013-04-23 22:58:00,
2013-04-23 19:03:00,65.0,54.2,30.18,SSE,150,3.0,5.0,68,0.00,,---,0.00,VWS V14.01,2013-04-23 23:03:00,
2013-04-23 19:08:00,64.9,54.1,30.18,SE,144,0.0,5.0,68,0.00,,---,0.00,VWS V14.01,2013-04-23 23:08:00,
2013-04-23 19:13:00,64.8,54.0,30.18,South,183,2.0,5.0,68,0.00,,---,0.00,VWS V14.01,2013-04-23 23:13:00,
2013-04-23 19:18:00,64.7,53.5,30.18,South,173,3.0,3.0,67,0.00,,---,0.00,VWS V14.01,2013-04-23 23:18:00,
2013-04-23 19:23:00,64.7,53.9,30.18,SSE,163,0.0,3.0,68,0.00,,---,0.00,VWS V14.01,2013-04-23 23:23:00,
2013-04-23 19:28:00,64.3,53.9,30.18,South,173,2.0,3.0,69,0.00,,---,0.00,VWS V14.01,2013-04-23 23:28:00,
2013-04-23 19:33:00,64.0,54.0,30.18,SSE,167,0.0,3.0,70,0.00,,---,0.00,VWS V14.01,2013-04-23 23:33:00,
2013-04-23 19:39:00,63.6,53.7,30.18,SSE,163,1.0,3.0,70,0.00,,---,0.00,VWS V14.01,2013-04-23 23:39:00,
2013-04-23 19:44:00,63.3,53.8,30.18,SSE,167,0.0,3.0,71,0.00,,---,0.00,VWS V14.01,2013-04-23 23:44:00,
2013-04-23 19:49:00,62.8,53.7,30.18,SSE,167,1.0,1.0,72,0.00,,---,0.00,VWS V14.01,2013-04-23 23:49:00,
2013-04-23 19:54:00,62.4,53.6,30.19,SSE,167,0.0,1.0,73,0.00,,---,0.00,VWS V14.01,2013-04-23 23:54:00,
2013-04-23 19:59:00,62.0,53.3,30.19,SSE,167,0.0,2.0,73,0.00,,---,0.00,VWS V14.01,2013-04-23 23:59:00,
2013-04-23 20:04:00,61.6,53.2,30.19,SSE,167,0.0,0.0,74,0.00,,---,0.00,VWS V14.01,2013-04-24 00:04:00,
2013-04-23 20:10:00,60.8,53.2,30.19,SSE,167,0.0,0.0,76,0.00,,---,0.00,VWS V14.01,2013-04-24 00:10:00,
2013-04-23 20:15:00,59.4,52.5,30.19,SSE,167,0.0,0.0,78,0.00,,---,0.00,VWS V14.01,2013-04-24 00:15:00,
2013-04-23 20:20:00,58.2,52.4,30.19,SSE,167,0.0,0.0,81,0.00,,---,0.00,VWS V14.01,2013-04-24 00:20:00,
2013-04-23 20:25:00,57.3,51.9,30.19,SSE,167,0.0,0.0,82,0.00,,---,0.00,VWS V14.01,2013-04-24 00:25:00,
2013-04-23 20:30:00,56.9,51.8,30.19,SSE,167,0.0,0.0,83,0.00,,---,0.00,VWS V14.01,2013-04-24 00:30:00,
2013-04-23 20:35:00,57.0,52.2,30.20,SSE,167,0.0,0.0,84,0.00,,---,0.00,VWS V14.01,2013-04-24 00:35:00,
2013-04-23 20:40:00,56.3,51.5,30.20,SSE,167,0.0,0.0,84,0.00,,---,0.00,VWS V14.01,2013-04-24 00:40:00,
2013-04-23 20:45:00,56.1,52.0,30.20,SSE,166,0.0,0.0,86,0.00,,---,0.00,VWS V14.01,2013-04-24 00:45:00,
2013-04-23 20:50:00,56.0,51.9,30.20,SSE,167,0.0,0.0,86,0.00,,---,0.00,VWS V14.01,2013-04-24 00:50:00,
2013-04-23 20:55:00,55.7,51.9,30.20,SSE,167,0.0,0.0,87,0.00,,---,0.00,VWS V14.01,2013-04-24 00:55:00,
2013-04-23 21:01:00,55.3,51.5,30.20,SSE,167,0.0,0.0,87,0.00,,---,0.00,VWS V14.01,2013-04-24 01:01:00,
2013-04-23 21:06:00,54.8,51.3,30.19,SSE,167,0.0,0.0,88,0.00,,---,0.00,VWS V14.01,2013-04-24 01:06:00,
2013-04-23 21:11:00,54.6,51.4,30.19,SSE,166,0.0,0.0,89,0.00,,---,0.00,VWS V14.01,2013-04-24 01:11:00,
2013-04-23 21:16:00,55.0,52.1,30.19,SSE,167,0.0,0.0,90,0.00,,---,0.00,VWS V14.01,2013-04-24 01:16:00,
2013-04-23 21:21:00,55.7,52.5,30.19,SSE,165,0.0,2.0,89,0.00,,---,0.00,VWS V14.01,2013-04-24 01:21:00,
2013-04-23 21:26:00,56.4,52.6,30.19,SSE,165,0.0,2.0,87,0.00,,---,0.00,VWS V14.01,2013-04-24 01:26:00,
2013-04-23 21:31:00,56.8,52.3,30.20,SSE,165,0.0,0.0,85,0.00,,---,0.00,VWS V14.01,2013-04-24 01:31:00,
2013-04-23 21:36:00,57.1,52.6,30.20,SSE,158,1.0,2.0,85,0.00,,---,0.00,VWS V14.01,2013-04-24 01:36:00,
2013-04-23 21:41:00,57.3,52.5,30.20,SSE,153,0.0,2.0,84,0.00,,---,0.00,VWS V14.01,2013-04-24 01:41:00,
2013-04-23 21:46:00,57.2,52.4,30.21,SSE,153,0.0,0.0,84,0.00,,---,0.00,VWS V14.01,2013-04-24 01:46:00,
2013-04-23 21:51:00,56.8,52.3,30.21,SSE,153,0.0,0.0,85,0.00,,---,0.00,VWS V14.01,2013-04-24 01:51:00,
2013-04-23 21:56:00,56.6,52.5,30.21,SSE,153,0.0,2.0,86,0.00,,---,0.00,VWS V14.01,2013-04-24 01:56:00,
2013-04-23 22:01:00,55.9,51.8,30.21,SSE,153,0.0,0.0,86,0.00,,---,0.00,VWS V14.01,2013-04-24 02:01:00,
2013-04-23 22:06:00,55.5,51.7,30.21,SSE,153,0.0,0.0,87,0.00,,---,0.00,VWS V14.01,2013-04-24 02:06:00,
2013-04-23 22:12:00,55.4,51.6,30.21,SSE,153,0.0,1.0,87,0.00,,---,0.00,VWS V14.01,2013-04-24 02:12:00,
2013-04-23 22:17:00,55.5,52.0,30.21,SSE,153,0.0,1.0,88,0.00,,---,0.00,VWS V14.01,2013-04-24 02:17:00,
2013-04-23 22:22:00,55.2,51.4,30.21,SSE,153,0.0,1.0,87,0.00,,---,0.00,VWS V14.01,2013-04-24 02:22:00,
2013-04-23 22:28:00,54.1,50.6,30.21,SSE,153,0.0,1.0,88,0.00,,---,0.00,VWS V14.01,2013-04-24 02:28:00,
2013-04-23 22:33:00,53.7,50.5,30.21,SSE,153,0.0,0.0,89,0.00,,---,0.00,VWS V14.01,2013-04-24 02:33:00,
2013-04-23 22:39:00,53.3,50.7,30.21,SSE,153,0.0,0.0,91,0.00,,---,0.00,VWS V14.01,2013-04-24 02:39:00,
2013-04-23 22:45:00,53.3,50.7,30.21,SSE,153,0.0,0.0,91,0.00,,---,0.00,VWS V14.01,2013-04-24 02:45:00,
2013-04-23 22:50:00,53.5,51.2,30.20,SSE,153,0.0,0.0,92,0.00,,---,0.00,VWS V14.01,2013-04-24 02:50:00,
2013-04-23 22:56:00,53.8,51.2,30.20,SSE,153,0.0,1.0,91,0.00,,---,0.00,VWS V14.01,2013-04-24 02:56:00,
2013-04-23 23:01:00,53.9,51.3,30.20,SSE,155,0.0,3.0,91,0.00,,---,0.00,VWS V14.01,2013-04-24 03:01:00,
2013-04-23 23:07:00,54.3,51.4,30.20,South,173,0.0,3.0,90,0.00,,---,0.00,VWS V14.01,2013-04-24 03:07:00,
2013-04-23 23:12:00,54.6,51.4,30.20,South,175,0.0,3.0,89,0.00,,---,0.00,VWS V14.01,2013-04-24 03:12:00,
2013-04-23 23:17:00,54.4,50.9,30.21,South,175,0.0,1.0,88,0.00,,---,0.00,VWS V14.01,2013-04-24 03:17:00,
2013-04-23 23:24:00,53.9,50.1,30.21,South,175,0.0,1.0,87,0.00,,---,0.00,VWS V14.01,2013-04-24 03:24:00,
2013-04-23 23:29:00,52.8,49.7,30.21,South,175,0.0,1.0,89,0.00,,---,0.00,VWS V14.01,2013-04-24 03:29:00,
2013-04-23 23:35:00,52.5,50.0,30.20,South,175,0.0,0.0,91,0.00,,---,0.00,VWS V14.01,2013-04-24 03:35:00,
2013-04-23 23:41:00,52.4,49.8,30.20,South,175,0.0,0.0,91,0.00,,---,0.00,VWS V14.01,2013-04-24 03:41:00,
2013-04-23 23:46:00,52.5,50.0,30.20,South,175,0.0,0.0,91,0.00,,---,0.00,VWS V14.01,2013-04-24 03:46:00,
2013-04-23 23:51:00,52.4,50.2,30.20,South,175,0.0,0.0,92,0.00,,---,0.00,VWS V14.01,2013-04-24 03:51:00,
2013-04-23 23:57:00,52.6,50.3,30.20,South,175,0.0,0.0,92,0.00,,---,0.00,VWS V14.01,2013-04-24 03:57:00,